Regional Weather Roundup
Issued by NWS Sioux Falls, SD

Home | Current Version | Previous Version | Graphics & Text | Print | Product List | Glossary On
Versions: 1 2 3 4 5 6 7 8 9 10 11 12 13 14 15 16 17 18 19 20 21 22 23 24 25 26 27 28 29 30 31 32 33 34 35 36 37 38 39 40 41 42 43 44 45 46 47 48 49 50
000
ASUS43 KFSD 242210
RWRFSD

WEATHER ROUNDUP FOR SE SOUTH DAKOTA/SW MINNESOTA/NW IOWA
NATIONAL WEATHER SERVICE SIOUX FALLS SD
500 PM CDT SAT JUN 24 2017

NOTE: "FAIR" INDICATES FEW OR NO CLOUDS BELOW 12,000 FEET WITH NO
SIGNIFICANT WEATHER AND OR OBSTRUCTIONS TO VISIBILITY.


SDZ038>040-050-052>070-242300-
SOUTHEAST SOUTH DAKOTA

CITY           SKY/WX    TMP DP  RH WIND       PRES   REMARKS
BROOKINGS      MOSUNNY   65  41  41 NW20      30.13S
CHAMBERLAIN    SUNNY     75  35  24 NW22G32   30.18R
HURON          MOSUNNY   70  41  34 NW23G29   30.15R
MADISON        FAIR      64  41  42 NW20G30   30.15S
MITCHELL       SUNNY     74  32  21 NW26G35   30.14S
SIOUX FALLS    MOSUNNY   70  44  39 NW21G29   30.12S
WINNER         FAIR      77  34  21 NW29G35   30.19S
YANKTON        SUNNY     75  38  26 NW23G31   30.13F
$$

MNZ071-072-080-081-089-090-097-098-242300-
SOUTHWEST MINNESOTA

CITY           SKY/WX    TMP DP  RH WIND       PRES   REMARKS
FAIRMONT       MOSUNNY   65  41  41 NW21G30   30.08R
JACKSON        MOSUNNY   64  37  36 NW21G30   30.10S
LUVERNE        PTSUNNY   66  36  32 NW18G26   30.13S
MARSHALL       PTSUNNY   65  41  41 NW22G28   30.10R
MONTEVIDEO     PTSUNNY   66  43  42 N14G23    30.09S
REDWOOD FALLS  PTSUNNY   66  41  40 NW13G22   30.07S
TRACY          PTSUNNY   65  41  40 NW18G28   30.11S
WINDOM         MOSUNNY   64  37  36 NW17G24   30.10S
WORTHINGTON    PTSUNNY   66  42  41 NW20G26   30.12S
$$

IAZ001>003-012>014-020>022-031-032-NEZ013-014-SDZ071-242300-
NORTHWEST IOWA

CITY           SKY/WX    TMP DP  RH WIND       PRES   REMARKS
CHEROKEE       PTSUNNY   72  38  28 NW16G30   30.10S
DENISON        MOSUNNY   77  39  25 NW17G28   30.12F
ESTHERVILLE    PTSUNNY   67  43  41 NW23G30   30.09R
LE MARS        MOSUNNY   75  39  27 NW22G33   30.12S
ORANGE CITY    SUNNY     72  39  30 NW22G29   30.11S
SHELDON        MOSUNNY   72  37  28 NW23G33   30.10R
SIOUX CITY     MOSUNNY   78  40  25 NW21G29   30.11S
SPENCER        MOSUNNY   72  40  31 NW20G35   30.10R
STORM LAKE     SUNNY     73  37  27 NW25G37   30.10S
$$

ABBREVIATIONS USED IN REMARKS
   TC - TEMPERATURE IN CELSIUS
  WCI - WIND CHILL INDEX
   HX - HEAT INDEX
  VSB - VISIBILITY





USA.gov is the U.S. government's official web portal to all federal, state and local government web resources and services.